FW9021 Weather Reports


Display with metric or nautical units.
time (UTC)temp
F
wind
direction
speed
MPH
gust
MPH
rain 1hr
in
rain 24hr
in
rain mn
in
humidity
%
barometer
mb
20260901131604 72 0 0.0 2.0 0.00 0.00 0.00 84 1022.4
20260901131044 72 0 0.0 2.0 0.00 0.00 0.00 84 1022.4
20260901130540 71 63 0.0 2.0 0.00 0.00 0.00 83 1022.3
20260901130058 71 0 0.0 2.0 0.00 0.00 0.00 83 1022.3
20260901125540 71 0 0.0 3.0 0.00 0.00 0.00 83 1022.2
20260901125041 70 63 0.0 3.0 0.00 0.00 0.00 83 1022.3
20260901124556 70 53 1.0 3.0 0.00 0.00 0.00 83 1022.2
20260901124040 70 61 1.0 3.0 0.00 0.00 0.00 83 1022.2
20260901123542 69 45 0.0 3.0 0.00 0.00 0.00 83 1022.2
20260901123055 69 0 0.0 2.0 0.00 0.00 0.00 83 1022.1
20260901122540 69 0 0.0 2.0 0.00 0.00 0.00 83 1022.0
20260901122039 69 46 1.0 2.0 0.00 0.00 0.00 83 1022.0
20260901121548 68 68 1.0 3.0 0.00 0.00 0.00 83 1022.0
20260901121040 68 58 1.0 3.0 0.00 0.00 0.00 83 1021.9
20260901120541 68 62 1.0 2.0 0.00 0.00 0.00 83 1021.9
20260901120058 68 62 0.0 3.0 0.00 0.00 0.00 83 1021.9
20260901115542 68 62 1.0 3.0 0.00 0.00 0.00 83 1021.7
20260901115040 68 45 1.0 3.0 0.00 0.00 0.00 83 1021.7
20260901114555 68 53 1.0 2.0 0.00 0.00 0.00 83 1021.7
20260901114041 68 53 0.0 2.0 0.00 0.00 0.00 83 1021.5
20260901113540 68 53 0.0 1.0 0.00 0.00 0.00 83 1021.3
20260901113050 68 53 0.0 1.0 0.00 0.00 0.00 83 1021.2
20260901112540 68 0 0.0 1.0 0.00 0.00 0.00 83 1021.2
20260901112040 68 0 0.0 2.0 0.00 0.00 0.00 83 1021.2
20260901111559 68 0 0.0 2.0 0.00 0.00 0.00 83 1021.2
20260901111040 68 53 0.0 2.0 0.00 0.00 0.00 83 1021.1
20260901110539 68 53 1.0 2.0 0.00 0.00 0.00 83 1021.0
20260901110058 68 53 0.0 2.0 0.00 0.00 0.00 83 1021.0
20260901105540 68 0 1.0 2.0 0.00 0.00 0.00 83 1020.9
20260901105043 68 54 0.0 2.0 0.00 0.00 0.00 83 1020.9
20260901104553 68 54 0.0 2.0 0.00 0.00 0.00 84 1020.8
20260901104040 68 0 0.0 2.0 0.00 0.00 0.00 83 1020.9
20260901103540 68 54 0.0 2.0 0.00 0.00 0.00 83 1020.8
20260901103100 68 0 0.0 1.0 0.00 0.00 0.00 83 1020.9
20260901102540 68 54 0.0 1.0 0.00 0.00 0.00 83 1020.9
20260901102040 68 54 0.0 1.0 0.00 0.00 0.00 83 1020.9
20260901101611 68 0 0.0 1.0 0.00 0.00 0.00 84 1020.8
20260901101041 68 54 0.0 2.0 0.00 0.00 0.00 84 1020.8
20260901100543 69 54 0.0 2.0 0.00 0.00 0.00 83 1020.8
20260901100100 69 0 0.0 2.0 0.00 0.00 0.00 84 1020.7
20260901095540 69 54 0.0 2.0 0.00 0.00 0.00 84 1020.7
20260901095040 69 54 0.0 3.0 0.00 0.00 0.00 84 1020.7
20260901094559 69 0 0.0 3.0 0.00 0.00 0.00 84 1020.7
20260901094040 69 54 2.0 3.0 0.00 0.00 0.00 83 1020.7
20260901093543 69 0 0.0 2.0 0.00 0.00 0.00 84 1020.7
20260901093052 69 0 0.0 3.0 0.00 0.00 0.00 84 1020.6
20260901092540 69 73 1.0 3.0 0.00 0.00 0.00 84 1020.7
20260901092040 69 0 2.0 3.0 0.00 0.00 0.00 84 1020.6
20260901091627 69 20 0.0 0.0 0.00 0.00 0.00 84 1020.5
20260901091039 69 0 0.0 1.0 0.00 0.00 0.00 84 1020.6
20260901090540 69 0 0.0 1.0 0.00 0.00 0.00 84 1020.5
20260901090055 69 0 0.0 1.0 0.00 0.00 0.00 84 1020.5
20260901085540 69 0 0.0 2.0 0.00 0.00 0.00 84 1020.5
20260901085040 69 54 0.0 2.0 0.00 0.00 0.00 84 1020.5
20260901084600 69 0 1.0 2.0 0.00 0.00 0.00 84 1020.4
20260901084038 69 54 0.0 2.0 0.00 0.00 0.00 84 1020.4
20260901083538 69 0 0.0 2.0 0.00 0.00 0.00 84 1020.5
20260901083049 70 0 0.0 3.0 0.00 0.00 0.00 84 1020.5
20260901082539 70 54 1.0 3.0 0.00 0.00 0.00 84 1020.3
20260901082038 70 85 0.0 1.0 0.00 0.00 0.00 84 1020.4
20260901081556 70 0 0.0 0.0 0.00 0.00 0.00 84 1020.5
20260901081037 70 0 0.0 0.0 0.00 0.00 0.00 84 1020.5
20260901080538 70 0 0.0 0.0 0.00 0.00 0.00 84 1020.5
20260901075539 70 0 0.0 0.0 0.00 0.00 0.00 84 1020.4
20260901075039 70 0 0.0 2.0 0.00 0.00 0.00 84 1020.3
20260901074611 70 0 0.0 2.0 0.00 0.00 0.00 84 1020.5
20260901074038 70 85 0.0 2.0 0.00 0.00 0.00 84 1020.6
20260901073541 70 85 1.0 3.0 0.00 0.00 0.00 84 1020.5
20260901073050 70 0 0.0 3.0 0.00 0.00 0.00 84 1020.6
20260901072539 70 96 1.0 3.0 0.00 0.00 0.00 84 1020.6
20260901072038 70 0 1.0 3.0 0.00 0.00 0.00 84 1020.6
20260901071557 70 94 0.0 2.0 0.00 0.00 0.00 84 1020.6
20260901071038 70 0 0.0 1.0 0.00 0.00 0.00 84 1020.5
20260901070538 70 0 0.0 1.0 0.00 0.00 0.00 84 1020.6
20260901070109 70 0 0.0 2.0 0.00 0.00 0.00 84 1020.6
20260901065538 70 0 0.0 2.0 0.00 0.00 0.00 84 1020.7
20260901065038 70 94 0.0 2.0 0.00 0.00 0.00 84 1020.7
20260901064553 70 94 0.0 2.0 0.00 0.00 0.00 84 1020.7
20260901064038 70 94 0.0 2.0 0.00 0.00 0.00 84 1020.7
20260901063539 70 65 0.0 2.0 0.00 0.00 0.00 84 1020.8
20260901063117 71 59 0.0 5.0 0.00 0.00 0.00 84 1020.8
20260901062538 71 58 2.0 5.0 0.00 0.00 0.00 84 1020.9
20260901062041 71 22 3.0 5.0 0.00 0.00 0.00 84 1020.9
20260901061559 71 19 1.0 3.0 0.00 0.00 0.00 84 1021.0
20260901061038 71 0 1.0 2.0 0.00 0.00 0.00 84 1021.1
20260901060543 71 55 1.0 3.0 0.00 0.00 0.00 84 1021.1
20260901060057 71 55 0.0 3.0 0.00 0.00 0.00 84 1021.2
20260901055538 71 55 1.0 3.0 0.00 0.00 0.00 84 1021.0
20260901055038 71 70 1.0 3.0 0.00 0.00 0.00 85 1021.1
20260901054556 71 70 1.0 3.0 0.00 0.00 0.00 85 1021.0
20260901054040 71 0 0.0 2.0 0.00 0.00 0.00 85 1021.0
20260901053543 71 43 0.0 2.0 0.00 0.00 0.00 85 1021.1
20260901053117 71 43 1.0 2.0 0.00 0.00 0.00 85 1021.1
20260901052540 71 0 0.0 2.0 0.00 0.00 0.00 85 1021.1
20260901052040 72 43 1.0 2.0 0.00 0.00 0.00 84 1021.0
20260901051610 72 43 0.0 2.0 0.00 0.00 0.00 85 1021.0
20260901051041 72 43 0.0 2.0 0.00 0.00 0.00 85 1021.0
20260901050539 72 0 0.0 2.0 0.00 0.00 0.00 85 1021.0
20260901050104 72 0 0.0 2.0 0.00 0.00 0.00 85 1021.0
20260901045543 72 43 1.0 4.0 0.00 0.00 0.00 85 1021.0
20260901045040 72 61 1.0 4.0 0.00 0.00 0.00 85 1020.9
20260901044558 72 49 2.0 4.0 0.00 0.00 0.00 85 1021.0
20260901044043 72 56 2.0 3.0 0.00 0.00 0.00 85 1020.9
20260901043540 73 44 2.0 3.0 0.00 0.00 0.00 84 1020.8
20260901043103 73 32 1.0 2.0 0.00 0.00 0.00 85 1020.8
20260901042539 73 32 1.0 3.0 0.00 0.00 0.00 85 1020.8
20260901042039 73 32 1.0 3.0 0.00 0.00 0.00 85 1020.8
20260901041611 73 32 1.0 2.0 0.00 0.00 0.00 85 1020.9
20260901041040 73 32 0.0 3.0 0.00 0.00 0.00 85 1020.8
20260901040543 73 32 0.0 3.0 0.00 0.00 0.00 85 1020.8
20260901040056 73 0 1.0 3.0 0.00 0.00 0.00 85 1020.8
20260901035540 73 28 0.0 2.0 0.00 0.00 0.00 85 1020.7
20260901035040 73 0 0.0 2.0 0.00 0.00 0.00 84 1020.7
20260901034548 73 28 0.0 2.0 0.00 0.00 0.00 85 1020.7
20260901034041 73 28 0.0 2.0 0.00 0.00 0.00 85 1020.6
20260901033540 74 28 1.0 2.0 0.00 0.00 0.00 85 1020.7
20260901033059 74 28 1.0 2.0 0.00 0.00 0.00 85 1020.8
20260901032540 74 28 0.0 2.0 0.00 0.00 0.00 85 1020.8
20260901032040 74 28 1.0 2.0 0.00 0.00 0.00 85 1020.7
20260901031600 74 28 0.0 2.0 0.00 0.00 0.00 85 1020.8
20260901031040 74 28 0.0 2.0 0.00 0.00 0.00 85 1020.8
20260901030540 74 28 0.0 2.0 0.00 0.00 0.00 85 1020.9
20260901030050 74 28 0.0 2.0 0.00 0.00 0.00 85 1020.8
20260901025540 74 0 0.0 3.0 0.00 0.00 0.00 85 1020.8
20260901025040 74 0 0.0 3.0 0.00 0.00 0.00 85 1020.8
20260901024549 74 28 2.0 3.0 0.00 0.00 0.00 85 1020.8
20260901024040 74 28 1.0 2.0 0.00 0.00 0.00 85 1020.9
20260901023540 75 0 0.0 2.0 0.00 0.00 0.00 85 1020.8
20260901023059 75 28 0.0 2.0 0.00 0.00 0.00 85 1020.8
20260901022539 75 28 0.0 2.0 0.00 0.00 0.00 85 1020.9
20260901022039 75 28 1.0 2.0 0.00 0.00 0.00 85 1020.9
20260901021556 75 0 0.0 2.0 0.00 0.00 0.00 85 1020.7
20260901021041 75 38 0.0 2.0 0.00 0.00 0.00 85 1020.9
20260901020541 75 38 0.0 1.0 0.00 0.00 0.00 85 1020.8
20260901020053 75 0 0.0 0.0 0.00 0.00 0.00 85 1020.7
20260901015540 75 0 0.0 0.0 0.00 0.00 0.00 84 1020.7
20260901015040 76 0 0.0 1.0 0.00 0.00 0.00 84 1020.6
20260901014558 76 0 0.0 4.0 0.00 0.00 0.00 84 1020.5
20260901014040 76 38 0.0 4.0 0.00 0.00 0.00 84 1020.5
20260901013540 76 36 2.0 4.0 0.00 0.00 0.00 84 1020.4
20260901013049 76 29 0.0 1.0 0.00 0.00 0.00 84 1020.2
20260901012539 76 0 0.0 0.0 0.00 0.00 0.00 84 1020.2
20260901012040 76 0 0.0 0.0 0.00 0.00 0.00 83 1020.1
20260901011558 77 0 0.0 0.0 0.00 0.00 0.00 83 1020.0
20260901011040 77 0 0.0 2.0 0.00 0.00 0.00 83 1020.0
20260901010540 77 0 0.0 4.0 0.00 0.00 0.00 83 1019.9
20260901010056 77 29 1.0 4.0 0.00 0.00 0.00 83 1019.8
20260901005541 77 36 2.0 4.0 0.00 0.00 0.00 83 1019.9
20260901005040 77 17 0.0 2.0 0.00 0.00 0.00 82 1019.8
20260901004551 78 17 0.0 2.0 0.00 0.00 0.00 82 1019.7
20260901004039 78 17 1.0 2.0 0.00 0.00 0.00 83 1019.7
20260901003541 78 17 0.0 2.0 0.00 0.00 0.00 82 1019.6
20260901003048 78 17 0.0 2.0 0.00 0.00 0.00 82 1019.6
20260901002541 78 17 0.0 3.0 0.00 0.00 0.00 82 1019.6
20260901002043 78 17 1.0 3.0 0.00 0.00 0.00 82 1019.6
20260901001559 78 17 2.0 3.0 0.00 0.00 0.00 82 1019.6
20260901001041 79 17 1.0 4.0 0.00 0.00 0.00 81 1019.7
20260901000540 79 17 2.0 4.0 0.00 0.00 0.00 81 1019.6
20260901000103 79 15 2.0 4.0 0.00 0.00 0.00 81 1019.6
20260831235541 80 26 2.0 4.0 0.00 0.00 0.00 80 1019.6
20260831235041 80 12 2.0 4.0 0.00 0.00 0.00 80 1019.7
20260831234612 80 23 2.0 4.0 0.00 0.00 0.00 80 1019.6
20260831234041 81 32 2.0 5.0 0.00 0.00 0.00 79 1019.6
20260831233541 81 21 3.0 5.0 0.00 0.00 0.00 79 1019.6
20260831233059 81 21 3.0 4.0 0.00 0.00 0.00 78 1019.5
20260831232539 82 23 2.0 4.0 0.00 0.00 0.00 77 1019.5
20260831232039 83 13 2.0 4.0 0.00 0.00 0.00 76 1019.5
20260831231556 83 13 2.0 4.0 0.00 0.00 0.00 75 1019.5
20260831231040 83 13 1.0 4.0 0.00 0.00 0.00 74 1019.5
20260831230542 84 13 2.0 4.0 0.00 0.00 0.00 73 1019.6
20260831230055 84 5 2.0 4.0 0.00 0.00 0.00 70 1019.6
20260831225540 84 50 2.0 5.0 0.00 0.00 0.00 70 1019.7
20260831225040 85 25 2.0 5.0 0.00 0.00 0.00 68 1019.8
20260831224550 85 28 3.0 5.0 0.00 0.00 0.00 69 1019.8
20260831224043 86 22 2.0 4.0 0.00 0.00 0.00 65 1019.9
20260831223540 86 99 1.0 3.0 0.00 0.00 0.00 62 1019.9
20260831223047 86 98 1.0 4.0 0.00 0.00 0.00 61 1019.9
20260831222546 86 45 1.0 4.0 0.00 0.00 0.00 63 1019.9
20260831222040 86 36 1.0 4.0 0.00 0.00 0.00 64 1019.8
20260831221558 86 5 1.0 3.0 0.00 0.00 0.00 63 1020.0
20260831221040 86 0 0.0 3.0 0.00 0.00 0.00 62 1019.9
20260831220541 86 71 1.0 4.0 0.00 0.00 0.00 63 1019.9
20260831220054 86 0 1.0 4.0 0.00 0.00 0.00 63 1020.0
20260831215540 86 63 2.0 5.0 0.00 0.00 0.00 62 1020.1
20260831215041 87 30 2.0 5.0 0.00 0.00 0.00 59 1020.0
20260831214558 87 306 2.0 5.0 0.00 0.00 0.00 58 1020.0
20260831214040 87 322 2.0 4.0 0.00 0.00 0.00 61 1019.9
20260831213542 86 355 2.0 8.0 0.00 0.00 0.00 60 1019.9
20260831213101 87 5 3.0 8.0 0.00 0.00 0.00 60 1019.9
20260831212541 87 21 3.0 8.0 0.00 0.00 0.00 59 1020.0
20260831212039 87 304 1.0 5.0 0.00 0.00 0.00 59 1020.0
20260831211555 87 340 3.0 5.0 0.00 0.00 0.00 59 1020.0
20260831211040 87 311 3.0 5.0 0.00 0.00 0.00 57 1020.0
20260831210540 87 278 1.0 3.0 0.00 0.00 0.00 57 1020.0
20260831210049 86 0 1.0 6.0 0.00 0.00 0.00 57 1020.0
20260831205541 86 325 3.0 6.0 0.00 0.00 0.00 58 1020.0
20260831205043 86 44 2.0 6.0 0.00 0.00 0.00 59 1020.1
20260831204547 85 300 2.0 8.0 0.00 0.00 0.00 62 1020.1
20260831204041 85 19 2.0 8.0 0.00 0.00 0.00 61 1020.1
20260831203541 85 355 4.0 8.0 0.00 0.00 0.00 63 1020.2
20260831203059 85 348 3.0 8.0 0.00 0.00 0.00 60 1020.2
20260831202544 86 12 4.0 7.0 0.00 0.00 0.00 60 1020.4
20260831202041 87 30 2.0 9.0 0.00 0.00 0.00 59 1020.4
20260831201549 87 53 2.0 9.0 0.00 0.00 0.00 58 1020.5
20260831201038 87 0 4.0 9.0 0.00 0.00 0.00 59 1020.6
20260831200537 86 191 1.0 8.0 0.00 0.00 0.00 58 1020.7
20260831200057 86 300 4.0 8.0 0.00 0.00 0.00 58 1020.6
20260831195542 86 53 1.0 4.0 0.00 0.00 0.00 60 1020.7
20260831195040 85 0 1.0 4.0 0.00 0.00 0.00 60 1020.8
20260831194549 85 277 2.0 5.0 0.00 0.00 0.00 61 1020.9
20260831194040 85 285 2.0 7.0 0.00 0.00 0.00 63 1020.9
20260831193538 84 17 3.0 9.0 0.00 0.00 0.00 63 1020.9
20260831193046 84 10 4.0 10.0 0.00 0.00 0.00 64 1020.9
20260831192539 84 22 5.0 10.0 0.00 0.00 0.00 64 1021.0
20260831192038 85 41 4.0 9.0 0.00 0.00 0.00 64 1021.0
20260831191553 85 29 3.0 9.0 0.00 0.00 0.00 64 1021.0
20260831191038 85 265 3.0 7.0 0.00 0.00 0.00 61 1021.0
20260831190542 85 254 3.0 7.0 0.00 0.00 0.00 61 1021.1
20260831190056 85 306 1.0 4.0 0.00 0.00 0.00 63 1021.1
20260831185537 85 317 2.0 4.0 0.00 0.00 0.00 63 1021.2
20260831185038 84 32 1.0 9.0 0.00 0.00 0.00 63 1021.4
20260831184551 84 295 2.0 9.0 0.00 0.00 0.00 64 1021.5
20260831184041 84 360 4.0 9.0 0.00 0.00 0.00 64 1021.5
20260831183539 84 11 3.0 9.0 0.00 0.00 0.00 65 1021.6
20260831183100 84 263 3.0 7.0 0.00 0.00 0.00 63 1021.6
20260831182538 84 240 2.0 7.0 0.00 0.00 0.00 62 1021.5
20260831182038 83 0 1.0 5.0 0.00 0.00 0.00 64 1021.7
20260831181556 83 355 2.0 5.0 0.00 0.00 0.00 65 1021.8
20260831181038 83 355 2.0 5.0 0.00 0.00 0.00 67 1021.7
20260831180538 83 304 2.0 7.0 0.00 0.00 0.00 66 1021.8
20260831180057 83 263 3.0 7.0 0.00 0.00 0.00 66 1021.8
20260831175538 83 238 3.0 7.0 0.00 0.00 0.00 66 1021.9
20260831175038 83 238 5.0 7.0 0.00 0.00 0.00 66 1021.9
20260831174606 83 254 2.0 8.0 0.00 0.00 0.00 67 1021.9
20260831174042 83 235 2.0 8.0 0.00 0.00 0.00 68 1021.9
20260831173538 83 232 3.0 14.0 0.00 0.00 0.00 68 1021.9
20260831173056 82 235 4.0 14.0 0.00 0.00 0.00 68 1022.0
20260831172538 83 290 5.0 14.0 0.00 0.00 0.00 71 1022.0
20260831172038 83 46 5.0 10.0 0.00 0.00 0.00 67 1022.1
20260831171555 83 294 0.0 4.0 0.00 0.00 0.00 66 1022.0
20260831171038 83 211 1.0 4.0 0.00 0.00 0.00 67 1022.1
20260831170538 82 0 1.0 6.0 0.00 0.00 0.00 69 1022.2
20260831170100 82 87 1.0 6.0 0.00 0.00 0.00 70 1022.2
20260831165544 82 11 3.0 6.0 0.00 0.00 0.00 70 1022.2
20260831165039 81 355 1.0 9.0 0.00 0.00 0.00 71 1022.2
20260831164603 82 28 4.0 9.0 0.00 0.00 0.00 70 1022.3
20260831164039 82 349 1.0 4.0 0.00 0.00 0.00 71 1022.4
20260831163539 81 72 1.0 4.0 0.00 0.00 0.00 71 1022.5
20260831163100 81 253 2.0 7.0 0.00 0.00 0.00 71 1022.4
20260831162539 81 355 3.0 7.0 0.00 0.00 0.00 71 1022.5
20260831162038 81 169 2.0 5.0 0.00 0.00 0.00 72 1022.6
20260831161606 81 230 2.0 8.0 0.00 0.00 0.00 72 1022.5
20260831161039 81 161 1.0 8.0 0.00 0.00 0.00 73 1022.7
20260831160538 81 242 2.0 4.0 0.00 0.00 0.00 73 1022.6
20260831160105 81 226 1.0 3.0 0.00 0.00 0.00 73 1022.6
20260831155539 81 0 0.0 4.0 0.00 0.00 0.00 72 1022.7
20260831155040 81 241 1.0 4.0 0.00 0.00 0.00 72 1022.7
20260831154626 81 239 1.0 4.0 0.00 0.00 0.00 74 1022.7
20260831154037 80 0 0.0 2.0 0.00 0.00 0.00 77 1022.8
20260831153538 80 215 0.0 2.0 0.00 0.00 0.00 77 1022.8
20260831153058 79 176 0.0 3.0 0.00 0.00 0.00 78 1022.8
20260831152538 79 0 0.0 3.0 0.00 0.00 0.00 79 1022.8
20260831152037 78 205 0.0 3.0 0.00 0.00 0.00 81 1022.8
20260831151609 77 0 0.0 2.0 0.00 0.00 0.00 82 1022.9
20260831151038 77 0 1.0 3.0 0.00 0.00 0.00 82 1022.9
20260831150538 76 261 1.0 3.0 0.00 0.00 0.00 82 1022.9
20260831150056 76 259 1.0 3.0 0.00 0.00 0.00 83 1022.9
20260831145542 76 250 1.0 3.0 0.00 0.00 0.00 83 1022.8
20260831145038 76 245 0.0 4.0 0.00 0.00 0.00 83 1022.8
20260831144548 76 245 2.0 4.0 0.00 0.00 0.00 84 1022.8
20260831144038 75 236 3.0 4.0 0.00 0.00 0.00 84 1022.9
20260831143538 75 236 2.0 4.0 0.00 0.00 0.00 84 1022.8
20260831143111 75 242 2.0 4.0 0.00 0.00 0.00 85 1022.9
20260831142539 74 242 2.0 4.0 0.00 0.00 0.00 84 1022.8
20260831142038 74 250 2.0 4.0 0.00 0.00 0.00 84 1022.8
20260831141604 74 0 1.0 3.0 0.00 0.00 0.00 85 1022.7
20260831141042 74 248 2.0 3.0 0.00 0.00 0.00 85 1022.7
20260831140540 73 242 2.0 3.0 0.00 0.00 0.00 85 1022.7
20260831140054 73 252 1.0 4.0 0.00 0.00 0.00 85 1022.8
20260831135539 73 247 1.0 4.0 0.00 0.00 0.00 85 1022.7
20260831135038 73 242 2.0 4.0 0.00 0.00 0.00 85 1022.7
20260831134603 73 318 1.0 3.0 0.00 0.00 0.00 85 1022.7
20260831134037 73 343 1.0 3.0 0.00 0.00 0.00 85 1022.6
20260831133539 73 0 0.0 3.0 0.00 0.00 0.00 85 1022.7
20260831133059 73 49 1.0 3.0 0.00 0.00 0.00 85 1022.6
20260831132539 73 34 1.0 3.0 0.00 0.00 0.00 85 1022.6
20260831132039 73 0 0.0 3.0 0.00 0.00 0.00 84 1022.6